Content
SEND FEEDBACK

Daily
Averages
Monthly
Summary
United States of America

FAYETTEVILLE, TENNESSEE


Home > North America > United States > Tennessee
Elevation: 700 feet     Latitude: 35 10N     Longitude: 086 33W

WEATHER
 
SELECT A DAY
Number of Records: 305,723;   Date Range: 4/22/02 - 10/24/14
 
SHARE

PRINT THIS DATA

[ ← Previous Day ]
WEATHER ALMANAC - JULY 12, 2014
[ Next Day → ]
[ °C ]   °F
Weather ElementAverageHighLow
Temperature78.2 °F91.4 °F (1:55 pm)64.4 °F (2:15 am)
Dewpoint63.9 °F69.8 °F (6:35 pm)57.2 °F (11:35 am)
Humidity65.3 %94 % (6:35 am)31 % (1:15 pm)
Barometer30.16 in30.21 in (9:55 am)30.10 in (6:35 am)
Wind Speed1 mph6.9 mph (11:35 am)
Weather ElementAverage
Visibility9.4 mi
Wind DirectionNNE (24 °)

Weather ElementTotal
Precipitation---
Cooling Degree Days12.9 (Base 65)
Growing Degree Days27.9 (Base 50)
Averaged from 70 records on July 12, 2014
WEATHER CONDITIONS BREAKOUT
WIND DIRECTION BREAKOUT
WEATHER BY HOUR - JULY 12, 2014
[ °C ]   °F
Local TimeTemperatureDewpointHumidityBarometerVisibilityWind DirectionWind SpeedGust SpeedPrecipitationEventsConditions
12:15 AM68.0 °F62.6 °F83 %30.17 in10.0 miCalmClear
12:35 AM68.0 °F62.6 °F83 %30.17 in10.0 miCalmClear
1:15 AM68.0 °F62.6 °F83 %30.16 in10.0 miCalmClear
1:35 AM68.0 °F62.6 °F83 %30.16 in10.0 miCalmClear
1:55 AM66.2 °F62.6 °F88 %30.15 in10.0 miCalmClear
2:15 AM68.0 °F62.6 °F83 %30.15 in7.0 miCalmClear
2:35 AM66.2 °F62.6 °F88 %30.15 in10.0 miCalmClear
2:55 AM66.2 °F62.6 °F88 %30.15 in7.0 miCalmClear
3:15 AM66.2 °F62.6 °F88 %30.14 in7.0 miCalmClear
3:35 AM64.4 °F62.6 °F94 %30.14 in10.0 miCalmClear
3:55 AM64.4 °F60.8 °F88 %30.15 in7.0 miCalmClear
4:15 AM66.2 °F62.6 °F88 %30.15 in10.0 miCalmClear
4:35 AM64.4 °F60.8 °F88 %30.16 in10.0 miCalmClear
4:55 AM64.4 °F60.8 °F88 %30.16 in10.0 miCalmClear
5:15 AM64.4 °F60.8 °F88 %30.17 in10.0 miCalmClear
5:35 AM64.4 °F60.8 °F88 %30.17 in7.0 miCalmClear
5:55 AM64.4 °F60.8 °F88 %30.17 in7.0 miCalmClear
6:15 AM64.4 °F60.8 °F88 %30.17 in7.0 miCalmClear
6:35 AM64.4 °F60.8 °F88 %30.19 in5.0 miCalmClear
6:55 AM68.0 °F62.6 °F83 %30.20 in7.0 miCalmClear
7:15 AM69.8 °F62.6 °F78 %30.20 in10.0 miCalmClear
7:35 AM71.6 °F62.6 °F73 %30.20 in10.0 miCalmClear
7:55 AM73.4 °F64.4 °F73 %30.20 in10.0 miCalmClear
8:15 AM75.2 °F64.4 °F69 %30.21 in10.0 miCalmClear
8:55 AM78.8 °F64.4 °F61 %30.21 in10.0 miCalmClear
9:15 AM78.8 °F66.2 °F65 %30.21 in10.0 miCalmClear
9:35 AM80.6 °F66.2 °F61 %30.21 in10.0 miCalmClear
9:55 AM82.4 °F66.2 °F58 %30.21 in10.0 miSE (130°)3.5 mphClear
10:15 AM82.4 °F68.0 °F62 %30.21 in10.0 miCalmClear
10:35 AM84.2 °F68.0 °F58 %30.21 in10.0 miEast (90°)3.5 mphClear
10:55 AM86.0 °F64.4 °F48 %30.21 in10.0 miSouth (180°)3.5 mphClear
11:15 AM86.0 °F66.2 °F51 %30.21 in10.0 miCalmClear
11:35 AM87.8 °F64.4 °F46 %30.20 in10.0 miSSW (200°)3.5 mphClear
11:55 AM87.8 °F62.6 °F43 %30.19 in10.0 miCalmClear
12:15 PM87.8 °F64.4 °F46 %30.19 in10.0 miESE (120°)4.6 mphScattered Clouds
12:35 PM89.6 °F60.8 °F38 %30.18 in10.0 miCalmScattered Clouds
12:55 PM89.6 °F59.0 °F36 %30.18 in10.0 miSSE (150°)3.5 mphClear
1:15 PM89.6 °F57.2 °F33 %30.18 in10.0 miEast (80°)3.5 mphClear
1:35 PM89.6 °F59.0 °F36 %30.17 in10.0 miESE (110°)4.6 mphScattered Clouds
1:55 PM89.6 °F59.0 °F36 %30.17 in10.0 miCalmClear
2:15 PM91.4 °F57.2 °F31 %30.17 in10.0 miENE (70°)3.5 mphClear
2:35 PM91.4 °F59.0 °F34 %30.16 in10.0 miSSE (150°)4.6 mphClear
2:55 PM91.4 °F62.6 °F38 %30.16 in10.0 miEast (100°)6.9 mphScattered Clouds
3:15 PM86.0 °F64.4 °F48 %30.16 in10.0 miENE (60°)3.5 mphScattered Clouds
3:35 PM87.8 °F64.4 °F46 %30.15 in10.0 miNE (50°)6.9 mphClear
3:55 PM89.6 °F60.8 °F38 %30.14 in10.0 miESE (110°)4.6 mphClear
4:15 PM89.6 °F60.8 °F38 %30.13 in10.0 miNE (50°)4.6 mphClear
4:35 PM89.6 °F60.8 °F38 %30.12 in10.0 miNNE (30°)4.6 mphClear
4:55 PM89.6 °F59.0 °F36 %30.12 in10.0 miCalmClear
5:15 PM89.6 °F59.0 °F36 %30.12 in10.0 miCalmClear
5:35 PM89.6 °F59.0 °F36 %30.11 in10.0 miCalmClear
5:55 PM89.6 °F60.8 °F38 %30.11 in10.0 miCalmClear
6:15 PM86.0 °F68.0 °F55 %30.11 in10.0 miCalmClear
6:35 PM86.0 °F66.2 °F51 %30.10 in10.0 miCalmClear
6:55 PM86.0 °F64.4 °F48 %30.10 in10.0 miCalmClear
7:15 PM86.0 °F66.2 °F51 %30.10 in10.0 miCalmClear
7:35 PM86.0 °F68.0 °F55 %30.11 in10.0 miCalmClear
7:55 PM80.6 °F69.8 °F70 %30.11 in10.0 miCalmClear
8:15 PM80.6 °F68.0 °F65 %30.11 in10.0 miCalmClear
8:35 PM78.8 °F69.8 °F74 %30.11 in10.0 miCalmClear
8:55 PM77.0 °F69.8 °F78 %30.12 in10.0 miCalmClear
9:15 PM77.0 °F69.8 °F78 %30.12 in10.0 miCalmClear
9:35 PM75.2 °F69.8 °F83 %30.12 in10.0 miCalmClear
9:55 PM75.2 °F69.8 °F83 %30.12 in10.0 miCalmClear
10:15 PM75.2 °F69.8 °F83 %30.13 in10.0 miCalmClear
10:35 PM73.4 °F69.8 °F88 %30.13 in7.0 miCalmScattered Clouds
10:55 PM75.2 °F69.8 °F83 %30.13 in10.0 miCalmScattered Clouds
11:15 PM73.4 °F69.8 °F88 %30.13 in7.0 miCalmClear
11:35 PM73.4 °F69.8 °F88 %30.13 in7.0 miCalmClear
11:55 PM73.4 °F69.8 °F88 %30.13 in7.0 miCalmClear
Hourly data recorded from KMDQ, located miles away from Fayetteville, Tennessee







STORIES FROM OUR PARTNERS